CW2377 Weather Reports


Display with metric or nautical units.
time (UTC)temp
F
wind
direction
speed
MPH
gust
MPH
rain 1hr
in
rain 24hr
in
rain mn
in
humidity
%
barometer
mb
20260903171204 76 120 0.0 0.0 0.00 0.09 0.09 88 1014.8
20260903170704 75 120 0.0 0.0 0.00 0.09 0.09 88 1014.8
20260903170203 75 120 0.0 0.0 0.00 0.09 0.09 87 1015.0
20260903165704 75 120 0.0 0.0 0.03 0.09 0.09 87 1015.2
20260903165204 75 120 0.0 0.0 0.04 0.09 0.09 88 1015.4
20260903164703 75 120 0.0 0.0 0.05 0.09 0.09 88 1015.4
20260903163204 76 120 0.0 0.0 0.08 0.09 0.09 88 1015.4
20260903162204 76 120 0.0 0.0 0.09 0.09 0.09 87 1015.2
20260903161704 76 120 0.0 0.0 0.09 0.09 0.09 86 1015.2
20260903161203 76 120 0.0 0.0 0.09 0.09 0.09 85 1015.2
20260903160205 77 120 0.0 0.0 0.09 0.09 0.09 84 1015.2
20260903155203 79 120 0.0 0.0 0.05 0.05 0.05 83 1015.5
20260903154704 79 120 0.0 0.0 0.04 0.04 0.04 82 1015.1
20260903154205 80 120 0.0 0.0 0.04 0.04 0.04 81 1014.7
20260903153703 81 120 0.0 0.0 0.03 0.03 0.03 78 1014.8
20260903153203 81 120 0.0 0.0 0.01 0.01 0.01 75 1014.9
20260903152704 82 120 0.0 0.0 0.00 0.00 0.00 73 1014.7
20260903152203 82 120 0.0 0.0 0.00 0.00 0.00 72 1014.4
20260903151703 82 120 0.0 0.0 0.00 0.00 0.00 72 1014.3
20260903151203 83 120 0.0 0.0 0.00 0.00 0.00 72 1014.4
20260903150703 83 120 0.0 0.0 0.00 0.00 0.00 75 1014.3
20260903145703 84 120 0.0 0.0 0.00 0.00 0.00 74 1013.5
20260903145204 84 120 0.0 0.0 0.00 0.00 0.00 72 1013.4
20260903144703 84 120 0.0 0.0 0.00 0.00 0.00 72 1013.5
20260903144203 84 120 0.0 0.0 0.00 0.00 0.00 72 1013.5
20260903143703 84 120 0.0 0.0 0.00 0.00 0.00 72 1013.4
20260903143203 84 120 0.0 0.0 0.00 0.00 0.00 72 1013.4
20260903142703 84 120 0.0 0.0 0.00 0.00 0.00 70 1013.4
20260903142203 84 120 0.0 0.0 0.00 0.00 0.00 70 1013.4
20260903141704 84 120 0.0 0.0 0.00 0.00 0.00 70 1013.4
20260903141203 83 120 0.0 0.0 0.00 0.00 0.00 69 1013.4
20260903140703 83 120 0.0 0.0 0.00 0.00 0.00 71 1013.4
20260903140203 83 120 0.0 0.0 0.00 0.00 0.00 69 1013.3
20260903135703 83 120 0.0 0.0 0.00 0.00 0.00 70 1013.3
20260903134704 83 120 0.0 0.0 0.00 0.00 0.00 69 1013.2
20260903134203 83 120 0.0 0.0 0.00 0.00 0.00 69 1013.2
20260903133203 82 120 0.0 0.0 0.00 0.00 0.00 71 1013.1
20260903132203 82 120 0.0 0.0 0.00 0.00 0.00 72 1013.1
20260903131708 81 120 0.0 0.0 0.00 0.00 0.00 73 1013.0
20260903131203 81 120 0.0 0.0 0.00 0.00 0.00 74 1013.0
20260903130703 81 120 0.0 0.0 0.00 0.00 0.00 75 1013.2
20260903130203 80 120 0.0 0.0 0.00 0.00 0.00 75 1013.1
20260903125703 80 120 0.0 0.0 0.00 0.00 0.00 75 1013.1
20260903124703 80 120 0.0 0.0 0.00 0.00 0.00 77 1013.2
20260903124204 80 120 0.0 0.0 0.00 0.00 0.00 77 1013.2
20260903123703 79 120 0.0 0.0 0.00 0.00 0.00 78 1013.3
20260903123203 79 120 0.0 0.0 0.00 0.00 0.00 78 1013.3
20260903122703 79 120 0.0 0.0 0.00 0.00 0.00 79 1013.3
20260903122204 79 120 0.0 0.0 0.00 0.00 0.00 79 1013.3
20260903121204 78 120 0.0 0.0 0.00 0.00 0.00 81 1013.3
20260903120204 78 120 0.0 0.0 0.00 0.00 0.00 82 1013.3
20260903115703 78 120 0.0 0.0 0.00 0.00 0.00 82 1013.3
20260903115204 78 120 0.0 0.0 0.00 0.00 0.00 82 1013.3
20260903114703 78 120 0.0 0.0 0.00 0.00 0.00 83 1013.2
20260903114204 78 120 0.0 0.0 0.00 0.00 0.00 82 1013.3
20260903113703 78 120 0.0 0.0 0.00 0.00 0.00 83 1013.3
20260903113203 78 120 0.0 0.0 0.00 0.00 0.00 83 1013.3
20260903112204 78 120 0.0 0.0 0.00 0.00 0.00 82 1013.3
20260903111703 78 120 0.0 0.0 0.00 0.00 0.00 82 1013.2
20260903110704 78 120 0.0 0.0 0.00 0.00 0.00 83 1013.2
20260903105204 78 120 0.0 0.0 0.00 0.00 0.00 84 1013.2
20260903104704 78 120 0.0 0.0 0.00 0.00 0.00 85 1013.1
20260903104203 78 120 0.0 0.0 0.00 0.00 0.00 86 1013.2
20260903103703 78 120 0.0 0.0 0.00 0.00 0.00 85 1013.1
20260903103204 78 120 0.0 0.0 0.00 0.00 0.00 86 1013.1
20260903102704 78 120 0.0 0.0 0.00 0.00 0.00 86 1013.1
20260903102204 78 120 0.0 0.0 0.00 0.00 0.00 86 1013.0
20260903101703 78 120 0.0 0.0 0.00 0.00 0.00 87 1013.1
20260903100703 78 120 0.0 0.0 0.00 0.00 0.00 87 1013.1
20260903100204 78 120 0.0 0.0 0.00 0.00 0.00 88 1013.1
20260903095204 78 120 0.0 0.0 0.00 0.00 0.00 87 1013.2
20260903094203 78 120 0.0 0.0 0.00 0.00 0.00 86 1013.2
20260903093704 78 120 0.0 0.0 0.00 0.00 0.00 86 1013.2
20260903093204 78 120 0.0 0.0 0.00 0.00 0.00 86 1013.1
20260903092704 78 120 0.0 0.0 0.00 0.00 0.00 86 1013.1
20260903092204 78 120 0.0 0.0 0.00 0.00 0.00 86 1013.1
20260903091703 78 120 0.0 0.0 0.00 0.00 0.00 86 1013.1
20260903091204 78 120 0.0 0.0 0.00 0.00 0.00 86 1013.0
20260903090704 78 120 0.0 0.0 0.00 0.00 0.00 85 1013.1
20260903090203 78 120 0.0 0.0 0.00 0.00 0.00 85 1013.2
20260903085204 79 120 0.0 0.0 0.00 0.00 0.00 84 1013.2
20260903084704 79 120 0.0 0.0 0.00 0.00 0.00 84 1013.1
20260903083704 79 120 0.0 0.0 0.00 0.00 0.00 83 1013.1
20260903082704 79 120 0.0 0.0 0.00 0.00 0.00 82 1013.1
20260903082204 80 120 0.0 0.0 0.00 0.00 0.00 81 1013.1
20260903081704 80 120 0.0 0.0 0.00 0.00 0.00 81 1013.1
20260903080704 80 120 0.0 0.0 0.00 0.00 0.00 80 1013.0
20260903080203 80 120 0.0 0.0 0.00 0.00 0.00 79 1012.9
20260903075703 80 120 0.0 0.0 0.00 0.00 0.00 80 1012.9
20260903075203 80 120 0.0 0.0 0.00 0.00 0.00 80 1012.9
20260903074705 80 120 0.0 0.0 0.00 0.00 0.00 81 1012.9
20260903074203 79 120 0.0 0.0 0.00 0.00 0.00 82 1012.9
20260903073704 79 120 0.0 0.0 0.00 0.00 0.00 83 1012.8
20260903073204 79 120 0.0 0.0 0.00 0.00 0.00 84 1012.8
20260903072703 79 120 0.0 0.0 0.00 0.00 0.00 85 1012.9
20260903072203 79 120 0.0 0.0 0.00 0.00 0.00 85 1012.9
20260903071203 79 120 0.0 0.0 0.00 0.00 0.00 85 1012.9
20260903070704 79 120 0.0 0.0 0.00 0.00 0.00 84 1012.9
20260903070203 79 120 0.0 0.0 0.00 0.00 0.00 84 1012.9
20260903065703 79 120 0.0 0.0 0.00 0.00 0.00 84 1012.8
20260903065204 79 120 0.0 0.0 0.00 0.00 0.00 84 1013.0
20260903064703 80 120 0.0 0.0 0.00 0.00 0.00 83 1013.0
20260903064203 80 120 0.0 0.0 0.00 0.00 0.00 83 1013.0
20260903063703 80 120 0.0 0.0 0.00 0.00 0.00 83 1013.0
20260903063204 80 120 0.0 0.0 0.00 0.00 0.00 83 1013.0
20260903062704 80 120 0.0 0.0 0.00 0.00 0.00 83 1013.1
20260903061204 80 120 0.0 0.0 0.00 0.00 0.00 83 1013.1
20260903060703 80 120 0.0 0.0 0.00 0.00 0.00 82 1013.1
20260903060204 80 120 0.0 0.0 0.00 0.00 0.00 82 1013.2
20260903055704 80 120 0.0 0.0 0.00 0.00 0.00 82 1013.2
20260903054703 80 120 0.0 0.0 0.00 0.00 0.00 81 1013.1
20260903054204 81 120 0.0 0.0 0.00 0.00 0.00 80 1013.2
20260903053204 81 120 0.0 0.0 0.00 0.00 0.00 79 1013.1
20260903052703 81 120 0.0 0.0 0.00 0.00 0.00 79 1013.1
20260903052204 81 120 0.0 0.0 0.00 0.00 0.00 78 1013.1
20260903051703 81 120 0.0 0.0 0.00 0.00 0.00 78 1013.2
20260903051204 81 120 0.0 0.0 0.00 0.00 0.00 78 1013.2
20260903050704 81 120 0.0 0.0 0.00 0.00 0.00 78 1013.1
20260903050203 82 120 0.0 0.0 0.00 0.00 0.00 78 1013.1
20260903045704 82 120 0.0 0.0 0.00 0.00 0.00 78 1013.0
20260903045204 82 120 0.0 0.0 0.00 0.00 0.00 78 1012.9
20260903044703 81 120 0.0 0.0 0.00 0.00 0.00 78 1012.9
20260903044204 82 120 0.0 0.0 0.00 0.00 0.00 78 1012.9
20260903043703 82 120 0.0 0.0 0.00 0.00 0.00 78 1012.9
20260903042704 82 120 0.0 0.0 0.00 0.00 0.00 78 1012.8
20260903042204 82 120 0.0 0.0 0.00 0.00 0.00 78 1012.8
20260903041703 82 120 0.0 0.0 0.00 0.00 0.00 78 1012.8
20260903041204 82 120 0.0 0.0 0.00 0.00 0.00 78 1012.8
20260903040703 82 120 0.0 0.0 0.00 0.00 0.00 78 1012.9
20260903040204 82 120 0.0 0.0 0.00 0.00 0.00 77 1012.9
20260903035703 82 120 0.0 0.0 0.00 0.00 0.00 77 1012.9
20260903035203 82 120 0.0 0.0 0.00 0.00 0.00 77 1012.9
20260903034704 82 120 0.0 0.0 0.00 0.00 0.00 77 1012.8
20260903034204 82 120 0.0 0.0 0.00 0.00 0.00 78 1012.9
20260903033703 82 120 0.0 0.0 0.00 0.00 0.00 78 1012.9
20260903033206 82 120 0.0 0.0 0.00 0.00 0.00 78 1012.9
20260903032704 82 120 0.0 0.0 0.00 0.00 0.00 78 1012.9
20260903032204 82 120 0.0 0.0 0.00 0.00 0.00 77 1012.8
20260903031703 82 120 0.0 0.0 0.00 0.00 0.00 77 1012.8
20260903030703 82 120 0.0 0.0 0.00 0.00 0.00 77 1012.8
20260903030203 82 120 0.0 0.0 0.00 0.00 0.00 77 1012.8
20260903025704 82 120 0.0 0.0 0.00 0.00 0.00 76 1012.8
20260903025203 83 120 0.0 0.0 0.00 0.00 0.00 76 1012.9
20260903024704 83 120 0.0 0.0 0.00 0.00 0.00 75 1012.8
20260903024203 83 120 0.0 0.0 0.00 0.00 0.00 74 1012.8
20260903023703 83 120 0.0 0.0 0.00 0.00 0.00 74 1012.8
20260903023203 83 120 0.0 0.0 0.00 0.00 0.00 74 1012.8
20260903022704 83 120 0.0 0.0 0.00 0.00 0.00 74 1012.7
20260903022204 82 120 0.0 0.0 0.00 0.00 0.00 76 1012.8
20260903021704 82 120 0.0 0.0 0.00 0.00 0.00 77 1012.7
20260903021204 82 120 0.0 0.0 0.00 0.00 0.00 78 1012.7
20260903020703 82 120 0.0 0.0 0.00 0.00 0.00 78 1012.7
20260903020203 82 120 0.0 0.0 0.00 0.00 0.00 78 1012.7
20260903015704 82 120 0.0 0.0 0.00 0.00 0.00 78 1012.6
20260903015203 82 120 0.0 0.0 0.00 0.00 0.00 77 1012.7
20260903014704 82 120 0.0 0.0 0.00 0.00 0.00 77 1012.6
20260903014204 82 120 0.0 0.0 0.00 0.00 0.00 76 1012.6
20260903013703 82 120 0.0 0.0 0.00 0.00 0.00 76 1012.6
20260903013203 83 120 0.0 0.0 0.00 0.00 0.00 75 1012.5
20260903012703 83 120 0.0 0.0 0.00 0.00 0.00 75 1012.5
20260903012203 83 120 0.0 0.0 0.00 0.00 0.00 74 1012.4
20260903011704 83 120 0.0 0.0 0.00 0.00 0.00 74 1012.3
20260903011203 84 120 0.0 0.0 0.00 0.00 0.00 73 1012.3
20260903010704 84 120 0.0 0.0 0.00 0.00 0.00 72 1012.2
20260903010203 84 120 0.0 0.0 0.00 0.00 0.00 71 1012.1
20260903005703 84 120 0.0 0.0 0.00 0.00 0.00 70 1012.1
20260903005204 84 120 0.0 0.0 0.00 0.00 0.00 70 1012.1
20260903004703 84 120 0.0 0.0 0.00 0.00 0.00 70 1012.0
20260903004203 85 120 0.0 0.0 0.00 0.00 0.00 69 1012.1
20260903003704 85 120 0.0 0.0 0.00 0.00 0.00 69 1012.1
20260903003203 85 120 0.0 0.0 0.00 0.00 0.00 68 1011.9
20260903002704 85 120 0.0 0.0 0.00 0.00 0.00 67 1012.0
20260903002204 86 120 0.0 0.0 0.00 0.00 0.00 67 1012.1
20260903001704 86 120 0.0 0.0 0.00 0.00 0.00 66 1012.0
20260903001203 87 120 0.0 0.0 0.00 0.00 0.00 65 1012.0
20260903000703 87 120 0.0 0.0 0.00 0.00 0.00 63 1012.0
20260903000204 87 120 0.0 0.0 0.00 0.00 0.00 62 1012.0
20260902235704 88 120 0.0 0.0 0.00 0.00 0.00 62 1011.8
20260902235204 88 120 0.0 0.0 0.00 0.00 0.00 60 1011.8
20260902234703 89 120 0.0 0.0 0.00 0.00 0.00 59 1011.8
20260902234203 89 120 0.0 0.0 0.00 0.00 0.00 58 1011.7
20260902233704 89 120 0.0 0.0 0.00 0.00 0.00 58 1011.7
20260902232703 90 120 0.0 0.0 0.00 0.00 0.00 58 1011.7
20260902232204 90 120 0.0 0.0 0.00 0.00 0.00 56 1011.7
20260902231703 90 120 0.0 0.0 0.00 0.00 0.00 56 1011.7
20260902231203 90 120 0.0 0.0 0.00 0.00 0.00 56 1011.7
20260902230704 90 120 0.0 0.0 0.00 0.00 0.00 56 1011.7
20260902230204 90 120 0.0 0.0 0.00 0.00 0.00 55 1011.7
20260902225704 90 120 0.0 0.0 0.00 0.00 0.00 56 1011.7
20260902224704 90 120 0.0 0.0 0.00 0.00 0.00 54 1011.8
20260902223703 91 120 0.0 0.0 0.00 0.00 0.00 53 1012.0
20260902223204 91 120 0.0 0.0 0.00 0.00 0.00 53 1011.8
20260902222204 91 120 0.0 0.0 0.00 0.00 0.00 53 1012.0
20260902221703 91 120 0.0 0.0 0.00 0.00 0.00 52 1012.1
20260902220703 92 120 0.0 0.0 0.00 0.00 0.00 52 1012.0
20260902220204 92 120 0.0 0.0 0.00 0.00 0.00 50 1012.0
20260902215704 92 120 0.0 0.0 0.00 0.00 0.00 50 1011.9
20260902215204 92 120 0.0 0.0 0.00 0.00 0.00 49 1012.1
20260902214703 93 120 0.0 0.0 0.00 0.00 0.00 47 1012.1
20260902214203 93 120 0.0 0.0 0.00 0.00 0.00 48 1012.1
20260902213203 93 120 0.0 0.0 0.00 0.00 0.00 45 1012.1
20260902212704 93 120 0.0 0.0 0.00 0.00 0.00 46 1012.1
20260902212203 94 120 0.0 0.0 0.00 0.00 0.00 49 1012.2
20260902211703 94 120 0.0 0.0 0.00 0.00 0.00 48 1012.2
20260902211204 94 120 0.0 0.0 0.00 0.00 0.00 48 1012.2
20260902210704 94 120 0.0 0.0 0.00 0.00 0.00 48 1012.1
20260902210204 95 120 0.0 0.0 0.00 0.00 0.00 47 1012.3
20260902205705 95 120 0.0 0.0 0.00 0.00 0.00 49 1012.2
20260902204204 95 120 0.0 0.0 0.00 0.00 0.00 45 1012.2
20260902203704 95 120 0.0 0.0 0.00 0.00 0.00 48 1012.2
20260902203203 95 120 0.0 0.0 0.00 0.00 0.00 47 1012.3
20260902202703 96 120 0.0 0.0 0.00 0.00 0.00 45 1012.3
20260902202204 96 120 0.0 0.0 0.00 0.00 0.00 45 1012.4
20260902201204 95 120 0.0 0.0 0.00 0.00 0.00 45 1012.4
20260902200703 95 120 0.0 0.0 0.00 0.00 0.00 44 1012.5
20260902200204 96 120 0.0 0.0 0.00 0.00 0.00 43 1012.4
20260902195703 96 120 0.0 0.0 0.00 0.00 0.00 47 1012.4
20260902195204 96 120 0.0 0.0 0.00 0.00 0.00 46 1012.4
20260902194204 96 120 0.0 0.0 0.00 0.00 0.00 47 1012.5
20260902193704 96 120 0.0 0.0 0.00 0.00 0.00 46 1012.5
20260902193204 96 120 0.0 0.0 0.00 0.00 0.00 48 1012.7
20260902192203 96 120 0.0 0.0 0.00 0.00 0.00 47 1012.8
20260902191704 96 120 0.0 0.0 0.00 0.00 0.00 45 1012.8
20260902191204 96 120 0.0 0.0 0.00 0.00 0.00 43 1012.8
20260902190703 96 120 0.0 0.0 0.00 0.00 0.00 44 1012.9
20260902190204 96 120 0.0 0.0 0.00 0.00 0.00 44 1012.9
20260902185704 96 120 0.0 0.0 0.00 0.00 0.00 44 1013.0
20260902184704 96 120 0.0 0.0 0.00 0.00 0.00 44 1013.0
20260902184203 95 120 0.0 0.0 0.00 0.00 0.00 47 1013.0
20260902183703 95 120 0.0 0.0 0.00 0.00 0.00 47 1013.1
20260902182203 93 120 0.0 0.0 0.00 0.00 0.00 50 1013.1
20260902181703 94 120 0.0 0.0 0.00 0.00 0.00 53 1013.1
20260902181203 93 120 0.0 0.0 0.00 0.00 0.00 51 1013.2
20260902180704 94 120 0.0 0.0 0.00 0.00 0.00 52 1013.1
20260902180203 94 120 0.0 0.0 0.00 0.00 0.00 52 1013.2
20260902175704 94 120 0.0 0.0 0.00 0.00 0.00 51 1013.3
20260902175204 94 120 0.0 0.0 0.00 0.00 0.00 51 1013.2
20260902174703 93 120 0.0 0.0 0.00 0.00 0.00 51 1013.2
20260902174204 94 120 0.0 0.0 0.00 0.00 0.00 51 1013.2
20260902173703 94 120 0.0 0.0 0.00 0.00 0.00 48 1013.3
20260902173203 94 120 0.0 0.0 0.00 0.00 0.00 50 1013.3
20260902172703 94 120 0.0 0.0 0.00 0.00 0.00 49 1013.4
20260902171704 94 120 0.0 0.0 0.00 0.00 0.00 51 1013.4